Weather History for Douglas, WY

Change the Weather History Date:

Sunday, January 27, 2013

  Actual Average Record
Temperature  
Mean Temperature 43 °F 25 °F  
Max Temperature 55 °F 38 °F 63 °F (2003)
Min Temperature 31 °F 12 °F -33 °F (2009)
Degree Days  
Heating Degree Days 22 40  
Month to date heating degree days 1029 1082  
Since 1 July heating degree days 3750 4171  
Cooling Degree Days 0 0  
Month to date cooling degree days 0 0  
Year to date cooling degree days 0 0  
Moisture  
Dew Point 26 °F    
Average Humidity 54    
Maximum Humidity 72    
Minimum Humidity 35    
Precipitation  
Precipitation 0.00 in 0.02 in 0.21 in (1965)
Month to date precipitation T 0.31  
Year to date precipitation T 0.31  
Sea Level Pressure  
Sea Level Pressure 29.68 in    
Wind  
Wind Speed 7 mph (NNW)    
Max Wind Speed 16 mph    
Max Gust Speed 20 mph    
Visibility 10 miles    
Events      
T = Trace of Precipitation, MM = Missing Value Source: NWS Daily Summary

Daily Weather History Graph

Daily Weather History Graph

Search for Another Location

Airport:

Trip Planner

Search our weather history database for the weather conditions in past years. The results will help you decide how hot, cold, wet, or windy it might be!

Date:

Astronomy

Jan. 27, 2013 Rise Set
Actual Time 7:20 AM MST 5:08 PM MST
Civil Twilight 6:50 AM MST 5:38 PM MST
Nautical Twilight 6:16 AM MST 6:13 PM MST
Astronomical Twilight 5:42 AM MST 6:46 PM MST
Moon 6:07 PM MST (1/27) 7:13 AM MST (1/27)
Length of Visible Light 10h 48m
Length of Day
9h 47m
Full, 100% of the Moon is Illuminated
Jan 27
Full
Feb 3
Last Quarter
Feb 10
New
Feb 17
First Quarter
Feb 25
Full

Hourly Weather History & Observations

Time (MST) Temp. Windchill Dew Point Humidity Pressure Visibility Wind Dir Wind Speed Gust Speed Precip Events Conditions
12:53 AM 37.9 °F - 25.0 °F 60% 29.65 in 10.0 mi Calm Calm - N/A   Overcast
1:53 AM 35.1 °F - 25.0 °F 67% 29.67 in 10.0 mi Calm Calm - N/A   Overcast
2:53 AM 32.0 °F 28.7 °F 24.1 °F 73% 29.68 in 10.0 mi WNW 3.5 mph - N/A   Overcast
3:53 AM 32.0 °F - 24.1 °F 73% 29.67 in 10.0 mi Calm Calm - N/A   Mostly Cloudy
4:53 AM 34.0 °F - 25.0 °F 70% 29.67 in 10.0 mi Calm Calm - N/A   Overcast
5:53 AM 32.0 °F 26.4 °F 25.0 °F 75% 29.71 in 10.0 mi NW 5.8 mph - N/A   Overcast
6:53 AM 32.0 °F 27.5 °F 25.0 °F 75% 29.71 in 10.0 mi SE 4.6 mph - N/A   Overcast
7:53 AM 33.1 °F 30.0 °F 25.0 °F 72% 29.71 in 10.0 mi SE 3.5 mph - N/A   Overcast
8:53 AM 37.9 °F - 27.0 °F 65% 29.70 in 10.0 mi Calm Calm - N/A   Mostly Cloudy
9:53 AM 46.0 °F 42.5 °F 28.9 °F 51% 29.68 in 10.0 mi NNW 6.9 mph - N/A   Clear
10:53 AM 51.1 °F - 28.9 °F 43% 29.67 in 10.0 mi NW 20.7 mph 28.8 mph N/A   Clear
11:53 AM 48.9 °F - 28.9 °F 46% 29.68 in 10.0 mi NW 18.4 mph - N/A   Clear
12:53 PM 52.0 °F - 28.0 °F 40% 29.65 in 10.0 mi NW 15.0 mph - N/A   Mostly Cloudy
1:53 PM 53.1 °F - 27.0 °F 37% 29.64 in 10.0 mi NNW 13.8 mph - N/A   Mostly Cloudy
2:53 PM 51.1 °F - 27.0 °F 39% 29.65 in 10.0 mi NNW 3.5 mph - N/A   Overcast
3:53 PM 52.0 °F - 26.1 °F 37% 29.66 in 10.0 mi West 8.1 mph - N/A   Mostly Cloudy
4:53 PM 43.0 °F 35.1 °F 26.1 °F 51% 29.67 in 10.0 mi ENE 17.3 mph 21.9 mph N/A   Overcast
5:53 PM 39.9 °F 32.9 °F 27.0 °F 60% 29.72 in 10.0 mi NE 11.5 mph - N/A   Overcast
6:53 PM 37.9 °F 30.9 °F 27.0 °F 65% 29.74 in 10.0 mi ENE 10.4 mph - N/A   Overcast
7:53 PM 34.0 °F - 25.0 °F 70% 29.75 in 10.0 mi Calm Calm - N/A   Clear
8:53 PM 39.9 °F - 25.0 °F 55% 29.70 in 10.0 mi Calm Calm - N/A   Mostly Cloudy
9:53 PM 39.0 °F 34.8 °F 25.0 °F 57% 29.67 in 10.0 mi ESE 5.8 mph - N/A   Overcast
10:53 PM 41.0 °F 38.0 °F 24.1 °F 51% 29.64 in 10.0 mi West 4.6 mph - N/A   Scattered Clouds
11:53 PM 37.9 °F 31.5 °F 23.0 °F 55% 29.64 in 10.0 mi West 9.2 mph - N/A   Clear